Terminal Aerodrome Forecast
Issued by NWS Jackson, MS

Home | Current Version | Previous Version | Text Only | Print | Product List | Glossary On
Versions: 1 2 3 4 5 6 7 8 9 10 11 12 13 14 15 16 17 18 19 20 21
000
FTUS44 KJAN 291720
TAFHBG
TAF
KHBG 291720Z 2918/3018 36007KT P6SM FEW050
     FM292000 01007KT P6SM VCTS BKN050CB
     FM300200 23003KT P6SM SCT150=

USA.gov is the U.S. government's official web portal to all federal, state and local government web resources and services.